User: anonymous   Login
Location: Vancouver
(49.2500°N, 123.1330°W)
Time: 19:45:32
(UTC-07:00)
Language:

S-56A Canister/Altair - Orbit

View from above orbital plane
View from above orbital plane
View from above satellite
View from above satellite

Ground track
Ground track

The orbit data is extracted from the following two-line orbital elements,

1 00082U 61004B   16179.38832151  .00000004  00000-0  30968-4 0  9990
2 00082  38.8663 169.8544 1168255 281.9924  65.2411 12.25765945629716
Epoch (UTC): 27 June 2016 09:19:10
Eccentricity: 0.1168255
inclination: 38.8663°
perigee height: 639 km
apogee height: 2496 km
right ascension of ascending node: 169.8544°
argument of perigee: 281.9924°
revolutions per day: 12.25765945
mean anomaly at epoch: 65.2411°
orbit number at epoch: 62971

The dashed part of the orbit path shows where the satellite is in the earth's shadow,  

DLR